Tracking 31027 objects as of 19-Jul-2025
HD Live streaming from Space Station
objects crossing your sky now

OSCAR 27

Track OSCAR 27 now!
10-day predictions
OSCAR 27 is classified as:


NORAD ID: 18361
Int'l Code: 1987-080A
Perigee: 1,022.1 km
Apogee: 1,174.6 km
Inclination: 90.4 °
Period: 107.1 minutes
Semi major axis: 7469 km
RCS: 1.5699 m2 (large)
Launch date: September 16, 1987
Source: United States (US)
Launch site: AIR FORCE WESTERN TEST RANGE (AFWTR)
Your satellite tracking list
STARLINK-5088
Track 1 satellite(s)




NASA's NSSDC Master Catalog

Two Line Element Set (TLE):
1 18361U 87080A   25199.38236396  .00000045  00000-0  63222-4 0  9996
2 18361  90.3694  73.8411 0102061 287.2089  71.7908 13.44871293855767
Source of the keplerian elements: AFSPC